Regional Weather Roundup
Issued by NWS

Home | Current Version | Previous Version | Graphics & Text | Print | Product List | Glossary On
Versions: 1 2 3 4 5 6 7 8 9 10 11 12 13 14 15 16 17 18 19 20 21 22 23 24 25 26 27 28 29 30 31 32 33 34 35 36 37 38 39 40 41 42 43 44 45 46 47 48 49 50
000
ASUS43 KMKX 171901
RWRWI

WISCONSIN REGIONAL WEATHER ROUNDUP
NATIONAL WEATHER SERVICE MILWAUKEE/SULLIVAN WI
200 PM CDT THU AUG 17 2017

NOTE: "FAIR" INDICATES FEW OR NO CLOUDS BELOW 12,000 FEET WITH NO
SIGNIFICANT WEATHER AND/OR OBSTRUCTIONS TO VISIBILITY.

WIZ001-002-006>008-014>016-023>028-172000-
NORTHWEST WISCONSIN

CITY           SKY/WX    TMP DP  RH WIND       PRES   REMARKS
SUPERIOR ARPT    N/A     64  62  96 N9        29.65R FOG
ASHLAND        CLOUDY    65  63  93 N10       29.58S
HAYWARD        LGT RAIN  64  62  93 VRB6      29.60R
SIREN          RAIN      62  61  95 NW15      29.66R
CUMBERLAND     CLOUDY    63  61  94 NW13      29.63R FOG
RICE LAKE      CLOUDY    67  64  88 W15G22    29.62R
CHETEK         CLOUDY    72  67  86 NW10G16   29.58S
LADYSMITH      CLOUDY    72  68  86 NW8       29.58S
EAU CLAIRE     NOT AVBL
MENOMONIE      CLOUDY    70  65  83 W20G30    29.61R
NEW RICHMOND   CLOUDY    63  61  93 NW12G26   29.68R
OSCEOLA        CLOUDY    65  65 100 NW12      29.70R
$$

WIZ003>005-009-010-017-018-172000-
NORTH CENTRAL WISCONSIN

CITY           SKY/WX    TMP DP  RH WIND       PRES   REMARKS
MANITOWISH WTR CLOUDY    67  67 100 CALM      29.57F
ARBOR VITAE    PTSUNNY   72  66  82 SW13G18   29.57S
WOODRUFF       PTSUNNY   72  66  82 SW13G18   29.57S
RHINELANDER    RAIN      67  66  97 S8        29.57F FOG
EAGLE RIVER    CLOUDY    71  61  71 SW6       29.57S
LAND O LAKES   CLOUDY    73  65  77 S6        29.58F
PHILLIPS       RAIN      66  66  99 N5        29.55F
TOMAHAWK       RAIN      67  65  94 CALM      29.56F
MEDFORD        CLOUDY    68  66  94 SW12      29.54S
MERRILL        NOT AVBL
$$

WIZ029-030-035-036-043>047-172000-
CENTRAL WISCONSIN

CITY           SKY/WX    TMP DP  RH WIND       PRES   REMARKS
WAUSAU         LGT RAIN  67  66  97 S10       29.54S FOG
MOSINEE        LGT RAIN  66  66 100 SW17      29.57F FOG
MARSHFIELD     LGT RAIN  68  65  90 SW14G22   29.55S FOG
STEVENS POINT  CLOUDY    69  66  90 SW20G28   29.57F
WAUPACA        CLOUDY    74  65  71 S13G18    29.59F
WAUTOMA        CLOUDY    70  67  90 SW14G21   29.61S
WISC RAPIDS    LGT RAIN  70  67  90 SW10G22   29.59F FOG
CAMP DOUGLAS   NOT AVBL
$$

WIZ011>013-019>022-031-037>040-048>050-172000-
NORTHEAST WISCONSIN

CITY           SKY/WX    TMP DP  RH WIND       PRES   REMARKS
ANTIGO         CLOUDY    69  66  89 S13       29.58F
SHAWANO        CLOUDY    77  63  62 SW9G16    29.57S
OCONTO         PTSUNNY   78  66  66 SW15G21   29.56F HX  80
STURGEON BAY   CLOUDY    74  70  87 S13       29.59F
GREEN BAY      PTSUNNY   76  69  79 S12G20    29.59F
MANITOWOC      NOT AVBL
APPLETON       PTSUNNY   75  61  60 SW18G28   29.59F
CLINTONVILLE   CLOUDY    73  63  68 SW15G21   29.58S
OSHKOSH        PTSUNNY   77  65  66 SW16G23   29.60F
$$

WIZ032>034-041-042-053>061-172000-
SOUTHWEST WISCONSIN

CITY           SKY/WX    TMP DP  RH WIND       PRES   REMARKS
LA CROSSE      PTSUNNY   76  65  68 W17       29.63R
SPARTA         CLOUDY    72  64  77 W13G18    29.62S
VIROQUA        CLOUDY    68  67  96 W14G26    29.68R
BOSCOBEL       CLOUDY    75  65  70 SW13G25   29.68R
PRAIRIE DU CHI CLOUDY    73  63  69 W18G24    29.69R
PLATTEVILLE    CLOUDY    75  69  80 SW18G25   29.71F
$$

WIZ056-057-062-063-064-067-068-172000-
SOUTH CENTRAL WISCONSIN

CITY           SKY/WX    TMP DP  RH WIND       PRES   REMARKS
REEDSBURG      CLOUDY    72  67  85 SW20G26   29.64S
BARABOO/DELLS  CLOUDY    70  65  83 W10G16    29.64S
LONE ROCK      CLOUDY    73  70  88 W18G25    29.66S
MINERAL POINT  PTSUNNY   73  68  83 W23G30    29.70F
MADISON        RAIN      70  66  87 SW8       29.67S FOG
MIDDLETON      CLOUDY    71  67  88 SW15G23   29.68S
WATERTOWN      MOSUNNY   77  67  71 SW15G24   29.67F
MONROE         CLOUDY    75  63  64 SW22G33   29.71F
JANESVILLE     PTSUNNY   77  66  69 SW16G23   29.70F
$$

WIZ051-052-058>065-066-070>072-172000-
SOUTHEAST WISCONSIN

CITY           SKY/WX    TMP DP  RH WIND       PRES   REMARKS
MILWAUKEE      PTSUNNY   80  70  71 W18G26    29.67F HX  83
WAUKESHA       PTSUNNY   75  63  64 W18G32    29.70S
MILWAUKEE/TIMM PTSUNNY   79  61  53 SW20G30   29.67F HX  80
RACINE         SUNNY     80  70  71 SW20G28   29.69F HX  83
KENOSHA        MOSUNNY   80  67  64 W21G32    29.69F HX  82
FOND DU LAC    MOSUNNY   77  62  59 SW15G22   29.62F
SHEBOYGAN      PTSUNNY   79  68  69 SW16G26   29.63F HX  81
WEST BEND      PTSUNNY   73  68  83 SW13      29.65F
JUNEAU         PTSUNNY   75  64  67 SW17G28   29.67F
$$

LSZ147-162-172000-
LAKE SUPERIOR

STATION/POSITION TIME  TEMP    WIND        PRES    WAVE
                       AIR SEA DIR/SP/G            HT/PER
                 (UTC) (F)     (DEG/KT/KT) (MB)    (FT/S)
W MID LAKE BUOY  1750   60 60   30/ 17/ 21 1001.2F   5/ 5
DEVILS ISLAND    1800   60      40/ 23/ 26 1001.5F
PORT WING        1740   54      30/  8/  9 1002.7
SAXON HARBOR     1830   65     340/  5/  6 1000.7F
$$

LMZ867-665-643>646-172000-
LAKE MICHIGAN

STATION/POSITION TIME  TEMP    WIND        PRES    WAVE
                       AIR SEA DIR/SP/G            HT/PER
                 (UTC) (F)     (DEG/KT/KT) (MB)    (FT/S)
S GREEN BAY BUOY 1830   74 72  210/ 12/ 14 1001.4F
N MID LAKE BUOY  1750   69 67  160/ 14/ 17 1003.9F   4/ 5
NORTHPORT PIER   1840   72     160/ 11/ 16 1002.0F
KEWAUNEE LAKESHO 1830   72     180/ 18/ 20 1002.0F
SHEBOYGAN LAKESH 1800   72     190/ 19/ 22 1003.1F
PORT WASHINGTON  1830   81     240/ 12/ 17 1004.4F
ATWATER BUOY     1709   77 71  210/ 10/ 14 1005.5F
MILWAUKEE LAKESH 1850   79     260/ 16/ 23   N/A
S MID LAKE BUOY  1750   73 72  210/ 14/ 16 1005.8F   3/ 5
KENOSHA   LAKESH 1800   80     200/ 12/ 17 1005.1
$$

TC  - TEMPERATURE IN CELSIUS
VSB - VISIBILITY IN STATUTE MILES
WCI - WIND CHILL INDEX
HX  - HEAT INDEX





USA.gov is the U.S. government's official web portal to all federal, state and local government web resources and services.